Miscellaneous Local Product
Issued by NWS Hastings, NE

Home | Current Version | Previous Version | Graphics & Text | Print | Product List | Glossary On
Versions: 1 2 3 4 5 6 7 8 9 10 11 12 13 14 15 16 17 18 19 20 21 22 23 24 25 26 27 28 29 30 31 32 33 34 35 36 37 38 39 40 41 42 43 44 45 46 47 48 49 50
050
AXUS43 KGID 260702
MISGRI

GID CWA HOURLY WEATHER ROUNDUP
NATIONAL WEATHER SERVICE HASTINGS NE
200 AM CDT THU APR 26 2018

NOTE: "FAIR" INDICATES FEW OR NO CLOUDS BELOW 12,000 FEET WITH NO
SIGNIFICANT WEATHER AND/OR OBSTRUCTIONS TO VISIBILITY.

...SOUTH CENTRAL NEBRASKA...

CITY           SKY/WX    TMP DP  RH WIND       PRES   REMARKS
GRAND ISLAND   CLOUDY    44  35  70 S10       29.99S
KEARNEY        PTCLDY    41  36  82 S10       29.99S
HASTINGS       CLOUDY    40  36  86 S7        30.00F
ORD            MOCLDY    39  34  82 S5        29.94F
YORK             N/A     37  37 100 SW8       30.00F WCI  31
AURORA         PTCLDY    40  35  81 SW9       29.99F WCI  34
LEXINGTON      CLOUDY    44  35  70 S10       29.97F
HOLDREGE       CLOUDY    40  36  86 S6        29.98F
HEBRON         PTCLDY    40  37  88 W6        30.01F

...NEBRASKA PANHANDLE...

CITY           SKY/WX    TMP DP  RH WIND       PRES   REMARKS
CHADRON        CLOUDY    51  31  46 NE6       29.98R
ALLIANCE       CLOUDY    46  32  58 NW10      29.93R
SCOTTSBLUFF    CLOUDY    56  28  34 N31G45    29.94S
SIDNEY         PTCLDY    47  29  49 SW13      29.95S

...WESTERN AND NORTH CENTRAL NEBRASKA...

CITY           SKY/WX    TMP DP  RH WIND       PRES   REMARKS
VALENTINE      MOCLDY    46  32  58 W14       29.93R
AINSWORTH      CLOUDY    47  33  58 SW10      29.92R
ONEILL         CLOUDY    47  35  63 S9        29.92F
BROKEN BOW     MOCLDY    42  33  70 S3        29.94F
IMPERIAL       PTCLDY    40  34  79 S7        29.96F
NORTH PLATTE   CLOUDY    46  32  58 SW7       29.95S
MCCOOK         MOCLDY    42  34  73 SW10      29.97F

...EASTERN NEBRASKA...

CITY           SKY/WX    TMP DP  RH WIND       PRES   REMARKS
NORFOLK        CLOUDY    42  33  70 S10       29.96F
SO SIOUX CITY  CLOUDY    44  33  65 SW7       29.97R
TEKAMAH        MOCLDY    43  33  68 CALM      29.97S
COLUMBUS       CLOUDY    44  35  70 S9        29.99S
ALBION         MOCLDY    41  33  75 SE3       29.97F
OMAHA EPPLEY   CLOUDY    44  37  76 SE6       29.98F
MILLARD        CLOUDY    46  35  66 CALM      29.98F
LINCOLN        PTCLDY    44  34  67 CALM      30.00F
NEBRASKA CITY  CLOUDY    43  39  85 W12       29.99F
BEATRICE       CLOUDY    37  35  92 CALM      30.00F
FALLS CITY     CLEAR     39  34  82 NW3       30.00S

...NORTHERN KANSAS...

CITY           SKY/WX    TMP DP  RH WIND       PRES   REMARKS
GOODLAND       PTCLDY    44  31  60 SW14      29.99S
HILL CITY      CLOUDY    40  35  83 W3        30.01F
NORTON         SUNNY     39  34  81 SW6       29.98F WCI  35
PHILLIPSBURG   CLEAR     41  36  81 CALM      30.01F
SMITH CENTER   CLEAR     34  34 100 SE6       30.02F WCI  29
BELOIT         CLEAR     36  36 100 CALM      30.03S
HAYS           CLOUDY    38  36  92 SW3       30.03F
RUSSELL        CLOUDY    36  36 100 S7        30.02F WCI  30
CONCORDIA      PTCLDY    42  38  85 SW10      30.01F
SALINA         CLOUDY    37  37 100 S3        30.03F
TOPEKA         CLEAR     41  41 100 SW3       30.01F FOG



USA.gov is the U.S. government's official web portal to all federal, state and local government web resources and services.